{"data":{"norad_id":48659,"intl_designator":"2021-044X","name":"STARLINK-2717","alt_names":[],"object_type":"PAYLOAD","status":"ACTIVE","operator":null,"country":"US","launch_date":"2021-05-26","launch_site_code":"AFETR","launch_vehicle":null,"mission":null,"orbit_class":"UNKNOWN","rcs_meters":null,"size_class":null,"mass_kg":null,"dimensions":null,"purposes":["comms"],"wikipedia_slug":null,"has_3d_model":false,"image_url":null,"decayed_at":null,"tle_current":{"epoch":"2026-05-25T02:33:03.233088Z","epoch_age_seconds":65880,"freshness":"FRESH","line1":"1 48659U 21044X   26145.10628742  .00001036  00000+0  45140-4 0  9998","line2":"2 48659  53.1597 118.4392 0001379  81.7950 278.3208 15.31694370275533","mean_motion":15.3169437,"eccentricity":0.0001379,"inclination_deg":53.1597,"raan_deg":118.4392,"arg_perigee_deg":81.795,"mean_anomaly_deg":278.3208,"bstar":4.514e-5,"rev_number":27553,"period_min":94.013533522357,"perigee_km":469.8123155621,"apogee_km":471.70124046608,"semimajor_km":6848.8937780141,"source":"CELESTRAK","updated_at":"2026-05-25T13:38:16.757033Z"}}}